Weather History for KCSM - November, 2012

Change the Weather History Date:

Sunday, November 18, 2012

  Actual Average Record
Temperature  
Mean Temperature 57 °F -  
Max Temperature 66 °F 56 °F 78 °F (1999)
Min Temperature 48 °F 37 °F 24 °F (2014)
Degree Days  
Heating Degree Days 8    
Growing Degree Days 7 (Base 50)    
Moisture  
Dew Point 38 °F    
Average Humidity 51    
Maximum Humidity 75    
Minimum Humidity 39    
Precipitation  
Precipitation 0.00 in - - ()
Sea Level Pressure  
Sea Level Pressure 30.12 in    
Wind  
Wind Speed 19 mph (South)    
Max Wind Speed 30 mph    
Max Gust Speed 37 mph    
Visibility 10 miles    
Events      
Averages and records for this station are not official NWS values.
T = Trace of Precipitation, MM = Missing Value Source: NWS Daily Summary

Daily Weather History Graph

Daily Weather History Graph

Search for Another Location

Airport or City:

Trip Planner

Search our weather history database for the weather conditions in past years. The results will help you decide how hot, cold, wet, or windy it might be!

Date:

Astronomy

Nov. 18, 2012 Rise Set
Actual Time 7:15 AM CST 5:28 PM CST
Civil Twilight 6:48 AM CST 5:55 PM CST
Nautical Twilight 6:17 AM CST 6:26 PM CST
Astronomical Twilight 5:47 AM CST 6:56 PM CST
Moon 11:45 AM CST (11/18) 10:46 PM CST (11/18)
Length of Visible Light 11h 07m
Length of Day
10h 13m
Waxing Crescent, 30% of the Moon is Illuminated
Nov 18
Waxing Crescent
Nov 20
First Quarter
Nov 28
Full
Dec 6
Last Quarter
Dec 13
New

Hourly Weather History & Observations

Time (CST) Temp. Dew Point Humidity Pressure Visibility Wind Dir Wind Speed Gust Speed Precip Events Conditions
12:53 AM 48.9 °F 28.0 °F 44% 30.18 in 10.0 mi South 18.4 mph - N/A   Clear
1:53 AM 48.9 °F 28.0 °F 44% 30.17 in 10.0 mi South 18.4 mph - N/A   Clear
2:53 AM 48.0 °F 28.9 °F 48% 30.17 in 10.0 mi South 18.4 mph - N/A   Clear
3:53 AM 48.0 °F 28.9 °F 48% 30.14 in 10.0 mi South 18.4 mph 26.5 mph N/A   Clear
4:53 AM 48.0 °F 30.0 °F 50% 30.14 in 10.0 mi South 18.4 mph 25.3 mph N/A   Clear
5:53 AM 48.0 °F 30.9 °F 52% 30.16 in 10.0 mi South 15.0 mph - N/A   Clear
6:53 AM 48.0 °F 30.9 °F 52% 30.16 in 10.0 mi South 13.8 mph - N/A   Clear
7:53 AM 48.0 °F 32.0 °F 54% 30.16 in 10.0 mi South 17.3 mph - N/A   Clear
8:53 AM 51.1 °F 32.0 °F 48% 30.17 in 10.0 mi South 19.6 mph - N/A   Clear
9:53 AM 54.0 °F 33.1 °F 45% 30.16 in 10.0 mi South 20.7 mph 29.9 mph N/A   Clear
10:53 AM 57.0 °F 34.0 °F 42% 30.15 in 10.0 mi South 23.0 mph 31.1 mph N/A   Clear
11:53 AM 61.0 °F 36.0 °F 39% 30.12 in 10.0 mi South 27.6 mph 34.5 mph N/A   Clear
12:53 PM 63.0 °F 39.0 °F 41% 30.08 in 10.0 mi South 28.8 mph 34.5 mph N/A   Clear
1:53 PM 66.0 °F 42.1 °F 42% 30.04 in 10.0 mi South 25.3 mph 36.8 mph N/A   Clear
2:53 PM 66.0 °F 43.0 °F 43% 30.05 in 10.0 mi South 24.2 mph 36.8 mph N/A   Clear
3:53 PM 64.9 °F 44.1 °F 47% 30.05 in 10.0 mi South 29.9 mph 35.7 mph N/A   Clear
4:53 PM 64.0 °F 44.1 °F 48% 30.06 in 10.0 mi South 20.7 mph 32.2 mph N/A   Clear
5:53 PM 63.0 °F 45.0 °F 52% 30.08 in 10.0 mi South 17.3 mph - N/A   Clear
6:53 PM 63.0 °F 46.0 °F 54% 30.09 in 10.0 mi South 17.3 mph - N/A   Clear
7:53 PM 60.1 °F 39.0 °F 46% 30.09 in 10.0 mi South 17.3 mph - 0.00 in   Overcast
8:53 PM 60.1 °F 48.9 °F 67% 30.09 in 10.0 mi South 17.3 mph - N/A   Mostly Cloudy
9:53 PM 57.9 °F 50.0 °F 75% 30.10 in 10.0 mi South 15.0 mph - N/A   Scattered Clouds
10:53 PM 55.0 °F 46.9 °F 74% 30.10 in 10.0 mi South 12.7 mph - N/A   Clear
11:53 PM 55.9 °F 48.0 °F 75% 30.08 in 10.0 mi South 18.4 mph - N/A   Clear